Mt. Pocono, PA

11:34 AM EDT on July 24, 2017 (GMT -0400)
Pocono Mountains Municipal

Weather History for KMPO - January, 2014

Change the Weather History Date:

Thursday, January 9, 2014

  Actual Average Record
Temperature  
Mean Temperature 20 °F 23 °F  
Max Temperature 28 °F 31 °F 61 °F (1998)
Min Temperature 12 °F 16 °F -18 °F (1981)
Degree Days  
Heating Degree Days 45 42  
Month to date heating degree days 466 374  
Since 1 July heating degree days 3198 3111  
Cooling Degree Days 0 0  
Month to date cooling degree days 0 0  
Year to date cooling degree days 0 0  
Moisture  
Dew Point 8 °F    
Average Humidity 63    
Maximum Humidity 84    
Minimum Humidity 42    
Precipitation  
Precipitation T in 0.10 in 2.56 in (1978)
Month to date precipitation 1.12 1.07  
Year to date precipitation 1.12 1.07  
Sea Level Pressure  
Sea Level Pressure 30.51 in    
Wind  
Wind Speed 7 mph (West)    
Max Wind Speed 14 mph    
Max Gust Speed 20 mph    
Visibility 8 miles    
Events Snow    
T = Trace of Precipitation, MM = Missing Value Source: NWS Daily Summary

Daily Weather History Graph

Daily Weather History Graph

Search for Another Location

Airport or City:

Trip Planner

Search our weather history database for the weather conditions in past years. The results will help you decide how hot, cold, wet, or windy it might be!

Date:

Astronomy

Jan. 09, 2014 Rise Set
Actual Time 7:26 AM EST 4:51 PM EST
Civil Twilight 6:55 AM EST 5:21 PM EST
Nautical Twilight 6:21 AM EST 5:56 PM EST
Astronomical Twilight 5:48 AM EST 6:29 PM EST
Moon 12:17 PM EST (1/9) 1:30 AM EST (1/9)
Length of Visible Light 10h 26m
Length of Day
9h 24m
Waxing Gibbous, 66% of the Moon is Illuminated
Jan 9
Waxing Gibbous
Jan 15
Full
Jan 24
Last Quarter
Jan 30
New
Feb 6
First Quarter

Hourly Weather History & Observations

Time (EST) Temp. Windchill Dew Point Humidity Pressure Visibility Wind Dir Wind Speed Gust Speed Precip Events Conditions
12:39 AM 14.0 °F 2.0 °F 5.0 °F 67% 30.33 in 2.5 mi West 9.2 mph - 0.00 in Snow Light Snow
12:53 AM 14.0 °F 1.2 °F 7.0 °F 74% 30.46 in 1.5 mi West 10.4 mph - 0.00 in Snow Light Snow
1:15 AM 14.0 °F 1.2 °F 8.1 °F 77% 30.34 in 2.0 mi West 10.4 mph - 0.00 in Snow Light Snow
1:33 AM 14.0 °F 1.2 °F 8.1 °F 77% 30.34 in 3.0 mi West 10.4 mph - 0.00 in Snow Light Snow
1:53 AM 14.0 °F 1.2 °F 8.1 °F 77% 30.46 in 10.0 mi West 10.4 mph - 0.00 in   Overcast
2:41 AM 14.0 °F 2.9 °F 8.1 °F 77% 30.36 in 4.0 mi WNW 8.1 mph - 0.00 in Snow Light Snow
2:53 AM 14.0 °F 3.9 °F 8.1 °F 77% 30.48 in 9.0 mi WNW 6.9 mph - 0.00 in   Mostly Cloudy
3:00 AM 14.0 °F 2.9 °F 8.1 °F 77% 30.36 in 10.0 mi West 8.1 mph - N/A   Scattered Clouds
3:53 AM 12.9 °F 0.7 °F 8.1 °F 81% 30.49 in 10.0 mi West 9.2 mph - N/A   Partly Cloudy
4:53 AM 12.9 °F 2.6 °F 8.1 °F 81% 30.50 in 10.0 mi WNW 6.9 mph - N/A   Clear
5:53 AM 12.9 °F 0.7 °F 7.0 °F 77% 30.53 in 10.0 mi NW 9.2 mph - N/A   Clear
6:53 AM 12.9 °F 2.6 °F 7.0 °F 77% 30.55 in 10.0 mi WNW 6.9 mph - N/A   Clear
7:53 AM 12.9 °F 0.7 °F 7.0 °F 77% 30.56 in 10.0 mi WNW 9.2 mph - N/A   Clear
8:53 AM 16.0 °F 1.7 °F 7.0 °F 68% 30.59 in 10.0 mi NW 13.8 mph 19.6 mph N/A   Clear
10:53 AM 21.0 °F 12.4 °F 8.1 °F 57% 30.62 in 10.0 mi North 6.9 mph - N/A   Clear
11:53 AM 24.1 °F 19.7 °F 9.0 °F 53% 30.60 in 10.0 mi Variable 3.5 mph - N/A   Clear
12:53 PM 26.1 °F - 8.1 °F 47% 30.57 in 10.0 mi Calm Calm - N/A   Clear
1:53 PM 28.0 °F - 8.1 °F 43% 30.55 in 10.0 mi North - - N/A   Clear
2:53 PM 28.0 °F 20.8 °F 9.0 °F 45% 30.56 in 10.0 mi SSE 6.9 mph - N/A   Clear
3:53 PM 26.1 °F 18.4 °F 10.0 °F 51% 30.58 in 10.0 mi SSE 6.9 mph - N/A   Clear
4:53 PM 21.9 °F 15.7 °F 9.0 °F 58% 30.58 in 10.0 mi SSE 4.6 mph - N/A   Clear
7:53 PM 19.0 °F 12.3 °F 9.0 °F 65% 30.58 in 10.0 mi SE 4.6 mph - N/A   Clear
8:53 PM 19.9 °F 13.4 °F 9.0 °F 62% 30.58 in 10.0 mi SSE 4.6 mph - N/A   Clear
9:53 PM 19.9 °F 13.4 °F 9.0 °F 62% 30.57 in 10.0 mi SSE 4.6 mph - N/A   Clear
10:53 PM 21.9 °F 12.5 °F 10.0 °F 60% 30.56 in 10.0 mi South 8.1 mph - N/A   Overcast
11:53 PM 21.9 °F 12.5 °F 9.0 °F 58% 30.53 in 10.0 mi SSW 8.1 mph - N/A   Overcast